When you browse on this site, cookies collect data to enhance your experience and personalize the content and advertising you see.
Visit our Privacy Policy to learn more. By continuing to use the site, you agree to this use of cookies and data.
  • In Czech Republic
  • List of Countries
  • For 7 days
  • Water Temperature
  • Satellite Maps
  • Weather Map
  • Weather Widgets
  • user-avatar
    Login

    Hourly Weather Kunming

    Today, 26 June, Wednesday

    Time Temperature Precipitation Wind Pressure Humidity
    00:00 +19°C° 0.2 mm 1 mps 589 mmHg 90%
    01:00 +19°C° 0 mm 1 mps 589 mmHg 91%
    02:00 +18°C° 0.1 mm 1 mps 589 mmHg 92%
    03:00 +18°C° 0.1 mm 1 mps 588 mmHg 93%
    04:00 +18°C° 0.1 mm 1 mps 588 mmHg 94%
    05:00 +18°C° 0 mm 1 mps 588 mmHg 93%
    06:00 +19°C° 0 mm 1 mps 589 mmHg 92%
    07:00 +19°C° 0 mm 1 mps 589 mmHg 91%
    08:00 +20°C° 0.3 mm 1 mps 589 mmHg 87%
    09:00 +22°C° 0.3 mm 1 mps 590 mmHg 82%
    10:00 +23°C° 0.3 mm 2 mps 590 mmHg 78%
    11:00 +23°C° 1.3 mm 2 mps 590 mmHg 77%
    12:00 +24°C° 1.3 mm 2 mps 589 mmHg 77%
    13:00 +24°C° 1.3 mm 2 mps 589 mmHg 76%
    14:00 +24°C° 0.8 mm 2 mps 588 mmHg 75%
    15:00 +24°C° 0.8 mm 2 mps 588 mmHg 74%
    16:00 +24°C° 0.8 mm 2 mps 587 mmHg 74%
    17:00 +23°C° 0.6 mm 2 mps 587 mmHg 78%
    18:00 +21°C° 0.6 mm 2 mps 586 mmHg 83%
    19:00 +21°C° 0.6 mm 1 mps 586 mmHg 88%
    20:00 +21°C° 0 mm 1 mps 586 mmHg 89%
    21:00 +20°C° 0 mm 1 mps 586 mmHg 90%
    22:00 +20°C° 0 mm 1 mps 587 mmHg 92%
    23:00 +19°C° 0 mm 1 mps 586 mmHg 92%

    Tomorrow, 27 June, Thursday

    Time Temperature Precipitation Wind Pressure Humidity
    00:00 +19°C° 0 mm 1 mps 586 mmHg 93%
    01:00 +19°C° 0 mm 1 mps 585 mmHg 94%
    02:00 +18°C° 0 mm 1 mps 585 mmHg 95%
    03:00 +18°C° 0 mm 1 mps 585 mmHg 95%
    04:00 +18°C° 0 mm 1 mps 585 mmHg 95%
    05:00 +18°C° 0 mm 1 mps 585 mmHg 94%
    06:00 +19°C° 0 mm 1 mps 585 mmHg 93%
    07:00 +19°C° 0 mm 1 mps 586 mmHg 92%
    08:00 +19°C° 0.1 mm 2 mps 586 mmHg 87%
    09:00 +21°C° 0.1 mm 2 mps 587 mmHg 82%
    10:00 +23°C° 0.1 mm 2 mps 587 mmHg 76%
    11:00 +24°C° 0.1 mm 3 mps 587 mmHg 72%
    12:00 +25°C° 0.1 mm 3 mps 587 mmHg 67%
    13:00 +26°C° 0.1 mm 4 mps 587 mmHg 62%
    14:00 +26°C° 0.2 mm 4 mps 586 mmHg 61%
    15:00 +26°C° 0.2 mm 4 mps 586 mmHg 61%
    16:00 +26°C° 0.2 mm 4 mps 585 mmHg 60%
    17:00 +25°C° 0 mm 3 mps 585 mmHg 67%
    18:00 +23°C° 0 mm 2 mps 585 mmHg 73%
    19:00 +21°C° 0 mm 2 mps 584 mmHg 80%
    20:00 +21°C° 0.1 mm 1 mps 585 mmHg 83%
    21:00 +21°C° 0.1 mm 1 mps 585 mmHg 86%
    22:00 +20°C° 0.1 mm 1 mps 585 mmHg 89%
    23:00 +20°C° 0 mm 1 mps 585 mmHg 90%

    Day after tomorrow, 28 June, Friday

    Time Temperature Precipitation Wind Pressure Humidity
    00:00 +20°C° 0 mm 1 mps 585 mmHg 91%
    01:00 +19°C° 0 mm 1 mps 585 mmHg 92%
    02:00 +19°C° 0 mm 1 mps 585 mmHg 93%
    03:00 +19°C° 0 mm 1 mps 585 mmHg 94%
    04:00 +19°C° 0 mm 1 mps 585 mmHg 94%
    05:00 +19°C° 0 mm 1 mps 585 mmHg 93%
    06:00 +20°C° 0 mm 1 mps 585 mmHg 91%
    07:00 +20°C° 0 mm 1 mps 586 mmHg 89%
    08:00 +22°C° 0.1 mm 1 mps 586 mmHg 83%
    09:00 +23°C° 0.1 mm 1 mps 587 mmHg 77%
    10:00 +25°C° 0.1 mm 2 mps 588 mmHg 70%
    11:00 +25°C° 0.4 mm 2 mps 587 mmHg 68%
    12:00 +26°C° 0.4 mm 2 mps 587 mmHg 65%
    13:00 +27°C° 0.4 mm 2 mps 587 mmHg 62%
    14:00 +27°C° 1 mm 2 mps 587 mmHg 63%
    15:00 +27°C° 1 mm 2 mps 586 mmHg 63%
    16:00 +27°C° 1 mm 2 mps 586 mmHg 64%
    17:00 +25°C° 0.8 mm 1 mps 586 mmHg 70%
    18:00 +24°C° 0.8 mm 1 mps 586 mmHg 76%
    19:00 +23°C° 0.8 mm 1 mps 585 mmHg 82%
    20:00 +22°C° 2.4 mm 1 mps 586 mmHg 84%
    21:00 +22°C° 2.4 mm 1 mps 586 mmHg 86%
    22:00 +21°C° 2.4 mm 1 mps 587 mmHg 88%
    23:00 +21°C° 1.5 mm 1 mps 586 mmHg 89%

    29 June, Saturday

    Time Temperature Precipitation Wind Pressure Humidity
    00:00 +20°C° 1.5 mm 1 mps 586 mmHg 90%
    01:00 +20°C° 1.5 mm 1 mps 586 mmHg 91%
    02:00 +20°C° 0.7 mm 1 mps 586 mmHg 92%
    03:00 +20°C° 0.7 mm 1 mps 586 mmHg 92%
    04:00 +20°C° 0.7 mm 1 mps 586 mmHg 92%
    05:00 +20°C° 1.5 mm 1 mps 586 mmHg 91%
    06:00 +20°C° 1.5 mm 1 mps 587 mmHg 90%
    07:00 +21°C° 1.5 mm 1 mps 587 mmHg 89%
    08:00 +22°C° 1.6 mm 1 mps 588 mmHg 86%
    09:00 +23°C° 1.6 mm 1 mps 588 mmHg 82%
    10:00 +23°C° 1.6 mm 1 mps 589 mmHg 79%
    11:00 +24°C° 1 mm 1 mps 589 mmHg 76%
    12:00 +25°C° 1 mm 1 mps 589 mmHg 74%
    13:00 +26°C° 1 mm 1 mps 589 mmHg 72%
    14:00 +25°C° 2 mm 1 mps 588 mmHg 74%
    15:00 +25°C° 2 mm 1 mps 588 mmHg 77%
    16:00 +24°C° 2 mm 1 mps 587 mmHg 79%
    17:00 +23°C° 1.2 mm 1 mps 587 mmHg 83%
    18:00 +22°C° 1.2 mm 1 mps 587 mmHg 86%
    19:00 +21°C° 1.2 mm 1 mps 587 mmHg 89%
    20:00 +21°C° 1.2 mm 1 mps 588 mmHg 90%
    21:00 +20°C° 1.2 mm 1 mps 588 mmHg 91%
    22:00 +20°C° 1.2 mm 1 mps 588 mmHg 91%
    23:00 +20°C° 1.6 mm 1 mps 588 mmHg 92%

    30 June, Sunday

    Time Temperature Precipitation Wind Pressure Humidity
    00:00 +20°C° 1.6 mm 1 mps 588 mmHg 93%
    01:00 +19°C° 1.6 mm 1 mps 588 mmHg 95%
    02:00 +19°C° 1.8 mm 1 mps 587 mmHg 95%
    03:00 +19°C° 1.8 mm 1 mps 587 mmHg 95%
    04:00 +17°C° 1.8 mm 0 mps 587 mmHg 95%
    05:00 +17°C° 1.3 mm 0 mps 588 mmHg 95%
    06:00 +17°C° 1.3 mm 0 mps 588 mmHg 94%
    07:00 +17°C° 1.3 mm 0 mps 588 mmHg 94%
    08:00 +19°C° 1.2 mm 0 mps 589 mmHg 90%
    09:00 +20°C° 1.2 mm 0 mps 590 mmHg 86%
    10:00 +21°C° 1.2 mm 0 mps 590 mmHg 82%
    11:00 +22°C° 1.8 mm 0 mps 590 mmHg 79%
    12:00 +23°C° 1.8 mm 0 mps 590 mmHg 76%
    13:00 +23°C° 1.8 mm 0 mps 590 mmHg 73%
    14:00 +25°C° 1.7 mm 1 mps 590 mmHg 76%
    15:00 +24°C° 1.7 mm 1 mps 589 mmHg 79%
    16:00 +23°C° 1.7 mm 1 mps 589 mmHg 81%
    17:00 +22°C° 1.3 mm 1 mps 589 mmHg 84%
    18:00 +21°C° 1.3 mm 1 mps 588 mmHg 87%
    19:00 +19°C° 1.3 mm 2 mps 588 mmHg 89%
    20:00 +19°C° 0.8 mm 2 mps 589 mmHg 90%
    21:00 +20°C° 0.8 mm 1 mps 589 mmHg 91%
    22:00 +19°C° 0.8 mm 1 mps 590 mmHg 92%
    23:00 +19°C° 0.4 mm 1 mps 589 mmHg 92%

    1 July, Monday

    Time Temperature Precipitation Wind Pressure Humidity
    00:00 +19°C° 0.4 mm 1 mps 589 mmHg 92%
    01:00 +19°C° 0.4 mm 1 mps 589 mmHg 93%
    02:00 +18°C° 0.7 mm 1 mps 589 mmHg 93%
    03:00 +18°C° 0.7 mm 1 mps 588 mmHg 94%
    04:00 +18°C° 0.7 mm 1 mps 588 mmHg 95%
    05:00 +18°C° 0.4 mm 1 mps 588 mmHg 94%
    06:00 +18°C° 0.4 mm 1 mps 589 mmHg 94%
    07:00 +18°C° 0.4 mm 1 mps 589 mmHg 93%
    08:00 +19°C° 0.1 mm 1 mps 589 mmHg 90%
    09:00 +20°C° 0.1 mm 1 mps 590 mmHg 87%
    10:00 +20°C° 0.1 mm 1 mps 590 mmHg 84%
    11:00 +22°C° 0.4 mm 1 mps 590 mmHg 80%
    12:00 +23°C° 0.4 mm 1 mps 590 mmHg 76%
    13:00 +24°C° 0.4 mm 1 mps 590 mmHg 72%
    14:00 +24°C° 0.7 mm 1 mps 590 mmHg 73%
    15:00 +24°C° 0.7 mm 1 mps 589 mmHg 74%
    16:00 +24°C° 0.7 mm 2 mps 588 mmHg 74%
    17:00 +23°C° 0.8 mm 1 mps 588 mmHg 78%
    18:00 +22°C° 0.8 mm 1 mps 588 mmHg 81%
    19:00 +21°C° 0.8 mm 1 mps 588 mmHg 85%
    20:00 +20°C° 0.9 mm 1 mps 588 mmHg 86%
    21:00 +20°C° 0.9 mm 1 mps 589 mmHg 88%
    22:00 +19°C° 0.9 mm 2 mps 589 mmHg 89%
    23:00 +19°C° 0.8 mm 1 mps 589 mmHg 90%
    Show more